Starlink 3459

operational
NORAD ID: 51757 Int'l Des: 2022-016 Owner: SPXS Country: US Constellation: starlink
LEOCIRCULAR

关于 Starlink 3459

正在加载描述...

实时位置

正在加载3D地球...

即将过境

高度历史

Altitude vs Time

uPlot chart will show altitude changes over time

两行轨道根数

1 51757U 22016AV 26063.16343354 -.00000672 00000-0 -24167-4 0 9993
2 51757 53.2203 333.9413 0001420 93.6451 266.4704 15.08829593222873
Epoch: Mar 4, 2026 • Age: 15 hours

当前状态

高度 542.7 km
速度 7.60 km/s
星下点 40.26°N, 20.86°W
发射日期 Feb 21, 2022
运行时间 4 years
类型 internet

技术详情

分类 Payload
质量 297.00 kg
干质量 275.00 kg
总质量 297.00 kg
长度 0.20 m
直径 2.80 m
跨度 9.00 m
形状 Box + pan
制造商 SPXS
平台类型 Starlink
阶段状态 In Orbit
所有者/国家 SPXS/US

大型星座

Loading constellations...